Weather History for KLND - June, 2013

Change the Weather History Date:

Wednesday, June 19, 2013

  Actual Average Record
Temperature  
Mean Temperature 70 °F 64 °F  
Max Temperature 89 °F 79 °F 97 °F (1940)
Min Temperature 51 °F 49 °F 32 °F (2014)
Degree Days  
Heating Degree Days 0 3  
Month to date heating degree days 48 102  
Since 1 June heating degree days 48 102  
Since 1 July heating degree days 7422 7724  
Cooling Degree Days 5 2  
Month to date cooling degree days 48 27  
Year to date cooling degree days 57 32  
Since 1 June cooling degree days 48 27  
Growing Degree Days 21 (Base 50)    
Moisture  
Dew Point 27 °F    
Average Humidity 33    
Maximum Humidity 59    
Minimum Humidity 7    
Precipitation  
Precipitation 0.00 in 0.04 in 0.31 in (1921)
Month to date precipitation T 0.98  
Year to date precipitation 7.52 7.20  
Snow  
Snow 0.00 in 0.00 in - ()
Month to date snowfall 0.0 0.1  
Since 1 June snowfall 0.0 0.1  
Since 1 July snowfall 111.1 91.4  
Snow Depth 0.00 in    
Sea Level Pressure  
Sea Level Pressure 29.55 in    
Wind  
Wind Speed 13 mph (WSW)    
Max Wind Speed 35 mph    
Max Gust Speed 43 mph    
Visibility 10 miles    
Events      
T = Trace of Precipitation, MM = Missing Value Source: NWS Daily Summary

Daily Weather History Graph

Daily Weather History Graph

Search for Another Location

Airport or City:

Trip Planner

Search our weather history database for the weather conditions in past years. The results will help you decide how hot, cold, wet, or windy it might be!

Date:

Astronomy

Jun. 19, 2013 Rise Set
Actual Time 5:36 AM MDT 8:56 PM MDT
Civil Twilight 5:00 AM MDT 9:31 PM MDT
Nautical Twilight 4:15 AM MDT 10:17 PM MDT
Astronomical Twilight 3:18 AM MDT 11:14 PM MDT
Moon 4:49 PM MDT (6/19) 2:27 AM MDT (6/19)
Length of Visible Light 16h 30m
Length of Day
15h 20m
Waxing Gibbous, 81% of the Moon is Illuminated
Jun 19
Waxing Gibbous
Jun 23
Full
Jun 29
Last Quarter
Jul 8
New
Jul 15
First Quarter

Hourly Weather History & Observations

Time (MDT) Temp. Dew Point Humidity Pressure Visibility Wind Dir Wind Speed Gust Speed Precip Events Conditions
12:53 AM 64.0 °F 36.0 °F 35% 29.64 in 10.0 mi ENE 6.9 mph 16.1 mph N/A   Partly Cloudy
1:53 AM 63.0 °F 37.0 °F 38% 29.65 in 10.0 mi WNW 6.9 mph - N/A   Clear
2:53 AM 57.9 °F 37.9 °F 47% 29.66 in 10.0 mi West 4.6 mph - N/A   Clear
3:53 AM 57.0 °F 36.0 °F 45% 29.62 in 10.0 mi WSW 10.4 mph - N/A   Clear
4:53 AM 55.0 °F 37.9 °F 53% 29.63 in 10.0 mi Calm Calm - N/A   Clear
5:53 AM 54.0 °F 36.0 °F 51% 29.63 in 10.0 mi WSW 8.1 mph - N/A   Clear
6:53 AM 54.0 °F 39.0 °F 57% 29.62 in 10.0 mi SW 3.5 mph - N/A   Clear
7:53 AM 60.1 °F 41.0 °F 49% 29.60 in 10.0 mi NNW 4.6 mph - N/A   Clear
8:53 AM 64.9 °F 41.0 °F 42% 29.58 in 10.0 mi Calm Calm - N/A   Clear
9:53 AM 68.0 °F 39.9 °F 36% 29.56 in 10.0 mi Calm Calm - N/A   Clear
10:53 AM 73.0 °F 39.0 °F 29% 29.51 in 10.0 mi Variable 3.5 mph - N/A   Clear
11:53 AM 80.1 °F 41.0 °F 25% 29.48 in 10.0 mi ENE 5.8 mph - N/A   Clear
12:53 PM 87.1 °F 23.0 °F 10% 29.42 in 10.0 mi SW 16.1 mph 29.9 mph N/A   Clear
1:53 PM 87.1 °F 17.1 °F 8% 29.41 in 10.0 mi SW 23.0 mph 34.5 mph N/A   Clear
2:53 PM 88.0 °F 19.0 °F 8% 29.40 in 10.0 mi SSW 15.0 mph 35.7 mph N/A   Clear
3:53 PM 86.0 °F 19.9 °F 9% 29.40 in 10.0 mi WSW 28.8 mph 36.8 mph N/A   Clear
4:00 PM 84.2 °F 17.6 °F 8% 29.64 in 9.0 mi West 20.7 mph 42.6 mph N/A   Clear
4:53 PM 82.0 °F 23.0 °F 11% 29.45 in 10.0 mi SW 19.6 mph 39.1 mph N/A   Clear
5:53 PM 81.0 °F 25.0 °F 13% 29.48 in 9.0 mi West 28.8 mph 38.0 mph N/A   Clear
6:53 PM 75.9 °F 21.0 °F 13% 29.53 in 10.0 mi West 24.2 mph 32.2 mph N/A   Clear
7:53 PM 72.0 °F 10.0 °F 9% 29.57 in 10.0 mi West 23.0 mph 29.9 mph N/A   Clear
8:53 PM 70.0 °F 10.9 °F 10% 29.56 in 10.0 mi West 18.4 mph 27.6 mph N/A   Clear
9:53 PM 71.1 °F 10.9 °F 10% 29.57 in 10.0 mi WSW 19.6 mph 32.2 mph N/A   Partly Cloudy
10:53 PM 69.1 °F 10.9 °F 11% 29.59 in 10.0 mi WSW 16.1 mph 31.1 mph N/A   Mostly Cloudy
11:53 PM 64.0 °F 9.0 °F 12% 29.61 in 10.0 mi SW 19.6 mph 33.4 mph N/A   Clear